Simultaneous Nadir Overpasses (SNOs) Predictions

Prediction of SNOs between METOP-B and NOAA-19 Satellite Orbit:

Table of predicted SNOs for the next 14.0 days since TLE Epoch: 5/4/2019
Index Date (METOP-B) Time (METOP-B) Lat,Lon (METOP-B) SZA (METOP-B ) Date (NOAA-19) Time (NOAA-19) Lat,Lon (NOAA-19) SZA (NOAA-19 ) Distance(km) Time Diff (sec)
1 05/11/2019 09:08:02 79.50, 60.66 62.19 05/11/2019 09:06:59 79.48, 56.03 61.89 93.97 63
2 05/11/2019 09:58:52 -79.22,-134.24 118.23 05/11/2019 09:57:47 -79.22,-134.35 118.25 2.30 65
3 05/11/2019 10:49:32 79.22, 33.09 61.76 05/11/2019 10:48:51 79.21, 32.98 61.74 2.41 41
4 05/11/2019 11:40:14 -79.20,-159.69 118.27 05/11/2019 11:39:47 -79.20,-159.61 118.28 1.66 27
5 05/11/2019 12:30:54 79.20, 7.65 61.73 05/11/2019 12:30:51 79.19, 7.71 61.71 2.31 3
6 05/11/2019 13:21:36 -79.19, 174.87 118.31 05/11/2019 13:21:48 -79.20, 174.86 118.29 1.31 12
7 05/11/2019 14:12:16 79.19, -17.79 61.69 05/11/2019 14:12:52 79.19, -17.82 61.70 0.72 36
8 05/11/2019 15:02:58 -79.17, 149.43 118.34 05/11/2019 15:03:48 -79.17, 149.59 118.33 3.25 50
9 05/11/2019 15:53:38 79.17, -43.23 61.65 05/11/2019 15:54:52 79.16, -43.09 61.67 3.22 74




NCC Satellite Simultaneous Nadir Overpasses (SNOs) Prediction Service
